Location: Newark
(41.7772°N, 74.7403°W)
Time: 13:14:03
(UTC+00:00)

Transit 4A - Pass Details

Date: 29 May 2020
Orbit: 866 x 978 km, 66.8° (Epoch: 06 July)

Event Time Altitude Azimuth Distance (km) Brightness Sun altitude
Exits shadow 07:03:02 38° 216° (SW) 1,300 8.1 -20.1°
Maximum altitude 07:05:23 82° 300° (WNW) 886 7.7 -19.9°
Drops below altitude 10° 07:11:18 10° 29° (NNE) 2,556 11.4 -19.3°
Sets 07:13:49 0° 30° (NNE) 3,514 12.6 -19.0°
